K5NCO Weather Reports


time (UTC)temp
C
wind
direction
speed
KPH
gust
KPH
rain 1hr
cm
rain 24hr
cm
rain mn
cm
humidity
%
barometer
mb
20260902135208 28 121 6.4 6.4 0.00 0.00 0.00 69 1017.3
20260902134707 28 225 3.2 4.8 0.00 0.00 0.00 69 1017.3
20260902134202 28 238 1.6 3.2 0.00 0.00 0.00 70 1017.2
20260902133657 28 248 3.2 4.8 0.00 0.00 0.00 70 1017.4
20260902133156 27 205 1.6 3.2 0.00 0.00 0.00 71 1017.2
20260902132647 27 255 1.6 3.2 0.00 0.00 0.00 71 1017.2
20260902132142 27 234 3.2 4.8 0.00 0.00 0.00 71 1017.2
20260902131638 27 222 1.6 1.6 0.00 0.00 0.00 72 1017.2
20260902131133 27 201 3.2 3.2 0.00 0.00 0.00 72 1017.2
20260902130629 26 219 3.2 3.2 0.00 0.00 0.00 73 1017.1
20260902130124 26 238 1.6 1.6 0.00 0.00 0.00 75 1017.1
20260902125620 26 198 0.0 0.0 0.00 0.00 0.00 76 1017.0
20260902125115 26 221 0.0 0.0 0.00 0.00 0.00 77 1016.9
20260902124612 25 204 1.6 1.6 0.00 0.00 0.00 78 1016.9
20260902124111 25 199 3.2 3.2 0.00 0.00 0.00 78 1016.8
20260902123607 25 203 0.0 0.0 0.00 0.00 0.00 78 1017.0
20260902123102 25 176 0.0 0.0 0.00 0.00 0.00 78 1016.9
20260902122601 25 167 0.0 0.0 0.00 0.00 0.00 79 1016.7
20260902122057 25 82 0.0 0.0 0.00 0.00 0.00 78 1016.7
20260902121557 25 82 0.0 0.0 0.00 0.00 0.00 78 1016.8
20260902121052 26 82 0.0 0.0 0.00 0.00 0.00 78 1016.6
20260902120548 26 80 0.0 0.0 0.00 0.00 0.00 78 1016.7
20260902120044 26 95 0.0 0.0 0.00 0.00 0.00 77 1016.7
20260902115539 25 197 0.0 0.0 0.00 0.00 0.00 78 1016.8
20260902115035 26 202 0.0 0.0 0.00 0.00 0.00 77 1016.7
20260902114530 26 201 0.0 0.0 0.00 0.00 0.00 77 1016.6
20260902114025 26 198 1.6 3.2 0.00 0.00 0.00 77 1016.6
20260902113520 26 223 0.0 0.0 0.00 0.00 0.00 77 1016.4
20260902113016 26 226 1.6 3.2 0.00 0.00 0.00 77 1016.4
20260902112511 26 247 3.2 4.8 0.00 0.00 0.00 77 1016.3
20260902112008 26 229 1.6 1.6 0.00 0.00 0.00 77 1016.3
20260902111503 26 220 1.6 3.2 0.00 0.00 0.00 77 1016.3
20260902110959 26 248 3.2 3.2 0.00 0.00 0.00 76 1016.4
20260902110455 26 224 4.8 4.8 0.00 0.00 0.00 77 1016.2
20260902105950 26 167 4.8 6.4 0.00 0.00 0.00 77 1016.2
20260902105444 26 181 4.8 4.8 0.00 0.00 0.00 77 1016.2
20260902104939 26 206 3.2 3.2 0.00 0.00 0.00 76 1016.4
20260902104435 26 186 3.2 3.2 0.00 0.00 0.00 76 1016.4
20260902103935 26 206 1.6 1.6 0.00 0.00 0.00 76 1016.3
20260902103430 26 193 4.8 6.4 0.00 0.00 0.00 75 1016.4
20260902102925 26 186 1.6 3.2 0.00 0.00 0.00 75 1016.4
20260902102422 26 205 1.6 3.2 0.00 0.00 0.00 75 1016.5
20260902101918 26 196 3.2 3.2 0.00 0.00 0.00 75 1016.4
20260902101412 26 199 3.2 3.2 0.00 0.00 0.00 75 1016.3
20260902100912 26 213 3.2 3.2 0.00 0.00 0.00 75 1016.2
20260902100406 26 224 1.6 3.2 0.00 0.00 0.00 75 1016.3
20260902095900 26 215 3.2 4.8 0.00 0.00 0.00 75 1016.3
20260902095354 26 192 1.6 3.2 0.00 0.00 0.00 76 1016.5
20260902094849 26 201 4.8 4.8 0.00 0.00 0.00 76 1016.4
20260902094345 26 226 4.8 4.8 0.00 0.00 0.00 76 1016.5
20260902093844 26 230 4.8 4.8 0.00 0.00 0.00 77 1016.4
20260902093340 26 222 0.0 0.0 0.00 0.00 0.00 77 1016.4
20260902092838 26 208 0.0 0.0 0.00 0.00 0.00 78 1016.3
20260902092334 26 208 0.0 0.0 0.00 0.00 0.00 78 1016.5
20260902091829 26 199 1.6 1.6 0.00 0.00 0.00 78 1016.5
20260902091325 26 183 1.6 1.6 0.00 0.00 0.00 78 1016.4
20260902090821 26 183 1.6 1.6 0.00 0.00 0.00 78 1016.4
20260902090320 26 205 3.2 3.2 0.00 0.00 0.00 78 1016.4
20260902085820 26 163 4.8 4.8 0.00 0.00 0.00 78 1016.5
20260902085315 26 161 4.8 4.8 0.00 0.00 0.00 77 1016.5
20260902084810 26 150 3.2 3.2 0.00 0.00 0.00 77 1016.5
20260902084307 26 146 3.2 3.2 0.00 0.00 0.00 77 1016.4
20260902083801 26 130 0.0 0.0 0.00 0.00 0.00 77 1016.4
20260902083256 26 173 0.0 0.0 0.00 0.00 0.00 77 1016.6
20260902082751 26 164 0.0 0.0 0.00 0.00 0.00 77 1016.8
20260902082248 26 157 1.6 1.6 0.00 0.00 0.00 77 1016.7
20260902081743 26 121 1.6 3.2 0.00 0.00 0.00 76 1016.5
20260902081239 26 110 4.8 4.8 0.00 0.00 0.00 76 1016.8
20260902080734 26 132 1.6 1.6 0.00 0.00 0.00 76 1016.8
20260902080231 26 87 0.0 1.6 0.00 0.00 0.00 76 1016.7
20260902075730 26 88 3.2 3.2 0.00 0.00 0.00 75 1016.9
20260902075226 26 83 3.2 3.2 0.00 0.00 0.00 75 1016.8
20260902074726 26 86 0.0 0.0 0.00 0.00 0.00 75 1016.8
20260902074222 27 57 3.2 3.2 0.00 0.00 0.00 74 1016.8
20260902073717 27 55 1.6 3.2 0.00 0.00 0.00 74 1017.0
20260902073213 27 98 1.6 1.6 0.00 0.00 0.00 73 1016.8
20260902072709 27 120 0.0 1.6 0.00 0.00 0.00 73 1016.9
20260902072205 27 83 1.6 3.2 0.00 0.00 0.00 73 1016.9
20260902071701 27 95 4.8 4.8 0.00 0.00 0.00 73 1016.7
20260902071155 27 84 0.0 0.0 0.00 0.00 0.00 73 1016.8
20260902070652 27 80 6.4 6.4 0.00 0.00 0.00 72 1017.0
20260902070151 27 68 3.2 3.2 0.00 0.00 0.00 72 1017.0
20260902065650 27 77 1.6 1.6 0.00 0.00 0.00 72 1016.9
20260902065146 27 127 0.0 0.0 0.00 0.00 0.00 72 1017.1
20260902064641 27 52 1.6 1.6 0.00 0.00 0.00 71 1017.0
20260902064137 27 66 3.2 3.2 0.00 0.00 0.00 71 1017.0
20260902063632 27 105 0.0 1.6 0.00 0.00 0.00 71 1017.0
20260902063127 27 43 1.6 3.2 0.00 0.00 0.00 71 1017.0
20260902062626 27 50 3.2 4.8 0.00 0.00 0.00 71 1017.2
20260902062121 27 39 3.2 4.8 0.00 0.00 0.00 71 1017.0
20260902061620 28 80 1.6 3.2 0.00 0.00 0.00 70 1016.9
20260902061116 28 65 1.6 1.6 0.00 0.00 0.00 70 1016.9
20260902060613 28 83 0.0 1.6 0.00 0.00 0.00 69 1017.0
20260902060109 28 81 6.4 6.4 0.00 0.00 0.00 69 1017.0
20260902055604 28 107 3.2 3.2 0.00 0.00 0.00 69 1016.9
20260902055059 28 103 3.2 4.8 0.00 0.00 0.00 69 1017.1
20260902054554 28 85 3.2 3.2 0.00 0.00 0.00 68 1017.0
20260902054050 28 127 3.2 4.8 0.00 0.00 0.00 68 1017.0
20260902053544 28 128 0.0 0.0 0.00 0.00 0.00 67 1016.8
20260902053039 28 92 1.6 3.2 0.00 0.00 0.00 67 1016.7
20260902052533 28 74 6.4 9.7 0.00 0.00 0.00 67 1016.6
20260902052029 29 71 6.4 6.4 0.00 0.00 0.00 67 1016.7
20260902051529 29 126 3.2 3.2 0.00 0.00 0.00 66 1016.6
20260902051028 29 83 4.8 4.8 0.00 0.00 0.00 66 1016.7
20260902050523 30 119 4.8 6.4 0.00 0.00 0.00 65 1016.9
20260902050018 30 120 4.8 9.7 0.00 0.00 0.00 65 1016.7
20260902045513 30 164 6.4 9.7 0.00 0.00 0.00 64 1016.6
20260902045010 30 131 12.9 14.5 0.00 0.00 0.00 64 1016.8
20260902044504 30 107 6.4 6.4 0.00 0.00 0.00 64 1016.7
20260902044000 30 139 6.4 6.4 0.00 0.00 0.00 63 1016.8
20260902043455 30 125 6.4 6.4 0.00 0.00 0.00 63 1017.0
20260902042950 30 99 9.7 11.3 0.00 0.00 0.00 63 1017.0
20260902042449 30 99 1.6 3.2 0.00 0.00 0.00 62 1017.0
20260902041944 30 88 6.4 9.7 0.00 0.00 0.00 61 1016.9
20260902041438 30 123 3.2 4.8 0.00 0.00 0.00 62 1016.7
20260902040938 30 122 8.0 9.7 0.00 0.00 0.00 61 1016.6
20260902040428 30 113 4.8 6.4 0.00 0.00 0.00 61 1016.7
20260902035926 31 141 8.0 11.3 0.00 0.00 0.00 60 1016.6
20260902035421 31 89 6.4 9.7 0.00 0.00 0.00 60 1016.7
20260902034920 31 132 3.2 4.8 0.00 0.00 0.00 60 1016.6
20260902034415 31 143 6.4 6.4 0.00 0.00 0.00 60 1016.5
20260902033915 31 169 4.8 6.4 0.00 0.00 0.00 60 1016.5
20260902033409 31 129 3.2 3.2 0.00 0.00 0.00 59 1016.2
20260902032908 31 123 3.2 3.2 0.00 0.00 0.00 59 1016.4
20260902032403 31 163 3.2 3.2 0.00 0.00 0.00 59 1016.3
20260902031903 31 136 3.2 3.2 0.00 0.00 0.00 59 1016.2
20260902031359 31 144 6.4 6.4 0.00 0.00 0.00 58 1016.3
20260902030854 31 170 6.4 6.4 0.00 0.00 0.00 58 1016.3
20260902030348 31 123 4.8 4.8 0.00 0.00 0.00 58 1016.2
20260902025847 31 103 3.2 3.2 0.00 0.00 0.00 57 1016.1
20260902025343 31 123 6.4 11.3 0.00 0.00 0.00 57 1015.8
20260902024838 31 101 4.8 4.8 0.00 0.00 0.00 57 1015.4
20260902024334 31 103 6.4 6.4 0.00 0.00 0.00 56 1015.4
20260902023829 31 90 6.4 6.4 0.00 0.00 0.00 56 1015.6
20260902023324 31 124 3.2 4.8 0.00 0.00 0.00 56 1015.4
20260902022823 32 116 9.7 11.3 0.00 0.00 0.00 55 1015.4
20260902022318 32 116 8.0 11.3 0.00 0.00 0.00 55 1015.4
20260902021814 32 132 6.4 9.7 0.00 0.00 0.00 54 1015.3
20260902021309 32 71 6.4 9.7 0.00 0.00 0.00 54 1015.1
20260902020805 32 101 8.0 14.5 0.00 0.00 0.00 53 1015.3
20260902020301 32 95 4.8 4.8 0.00 0.00 0.00 53 1015.2
20260902015756 32 75 4.8 6.4 0.00 0.00 0.00 53 1014.9
20260902015253 32 77 6.4 6.4 0.00 0.00 0.00 52 1014.9
20260902014748 32 122 3.2 4.8 0.00 0.00 0.00 52 1014.9
20260902014244 32 61 6.4 6.4 0.00 0.00 0.00 52 1014.7
20260902013743 32 48 8.0 9.7 0.00 0.00 0.00 51 1014.6
20260902013238 32 17 3.2 6.4 0.00 0.00 0.00 51 1014.6
20260902012733 33 75 11.3 14.5 0.00 0.00 0.00 50 1014.6
20260902012230 33 97 6.4 9.7 0.00 0.00 0.00 49 1014.5
20260902011724 33 82 8.0 12.9 0.00 0.00 0.00 49 1014.6
20260902011223 33 89 6.4 9.7 0.00 0.00 0.00 48 1014.5
20260902010718 33 97 3.2 4.8 0.00 0.00 0.00 46 1014.6
20260902010214 33 135 1.6 1.6 0.00 0.00 0.00 46 1014.5
20260902005712 33 92 6.4 11.3 0.00 0.00 0.00 45 1014.4
20260902005208 33 91 4.8 6.4 0.00 0.00 0.00 45 1014.4
20260902004708 34 41 4.8 6.4 0.00 0.00 0.00 45 1014.5
20260902004202 34 68 1.6 3.2 0.00 0.00 0.00 45 1014.5
20260902003652 34 98 8.0 9.7 0.00 0.00 0.00 45 1014.6
20260902003147 35 84 9.7 12.9 0.00 0.00 0.00 45 1014.7
20260902002643 35 61 6.4 9.7 0.00 0.00 0.00 45 1014.6
20260902002142 35 64 3.2 4.8 0.00 0.00 0.00 45 1014.7
20260902001638 35 66 3.2 6.4 0.00 0.00 0.00 45 1014.4
20260902001132 35 41 4.8 4.8 0.00 0.00 0.00 45 1014.6
20260902000627 35 76 9.7 16.1 0.00 0.00 0.00 44 1014.6
20260902000122 35 46 11.3 14.5 0.00 0.00 0.00 44 1014.4
20260901235622 35 51 8.0 14.5 0.00 0.00 0.00 43 1014.5
20260901235118 35 94 8.0 11.3 0.00 0.00 0.00 40 1014.5
20260901234616 35 92 3.2 4.8 0.00 0.00 0.00 40 1014.4
20260901234112 35 65 3.2 6.4 0.00 0.00 0.00 41 1014.3
20260901233607 35 36 12.9 16.1 0.00 0.00 0.00 41 1014.4
20260901233103 35 57 6.4 11.3 0.00 0.00 0.00 41 1014.4
20260901232557 35 42 4.8 6.4 0.00 0.00 0.00 41 1014.5
20260901232058 36 70 6.4 11.3 0.00 0.00 0.00 41 1014.3
20260901231554 36 103 4.8 6.4 0.00 0.00 0.00 43 1014.4
20260901231050 36 62 4.8 6.4 0.00 0.00 0.00 43 1014.4
20260901230546 36 35 6.4 6.4 0.00 0.00 0.00 43 1014.5
20260901230040 36 35 3.2 4.8 0.00 0.00 0.00 43 1014.6
20260901225535 36 52 11.3 14.5 0.00 0.00 0.00 42 1014.6
20260901225035 36 17 6.4 9.7 0.00 0.00 0.00 42 1014.6
20260901224531 36 34 8.0 12.9 0.00 0.00 0.00 42 1014.5
20260901224027 36 62 4.8 9.7 0.00 0.00 0.00 43 1014.5
20260901223522 36 139 4.8 9.7 0.00 0.00 0.00 43 1014.4
20260901223018 36 50 9.7 11.3 0.00 0.00 0.00 43 1014.6
20260901222514 36 81 11.3 11.3 0.00 0.00 0.00 43 1014.5
20260901222009 36 98 9.7 12.9 0.00 0.00 0.00 43 1014.4
20260901221505 36 63 11.3 12.9 0.00 0.00 0.00 43 1014.6
20260901221001 36 81 9.7 12.9 0.00 0.00 0.00 42 1014.5
20260901220500 36 27 8.0 11.3 0.00 0.00 0.00 42 1014.8
20260901215958 36 19 4.8 4.8 0.00 0.00 0.00 43 1014.7
20260901215457 36 52 0.0 1.6 0.00 0.00 0.00 44 1014.7
20260901214956 36 65 8.0 11.3 0.00 0.00 0.00 42 1014.6
20260901214455 36 142 6.4 11.3 0.00 0.00 0.00 42 1014.5
20260901213950 35 143 6.4 9.7 0.00 0.00 0.00 42 1014.8
20260901213444 35 143 0.0 3.2 0.00 0.00 0.00 44 1014.8
20260901212943 35 102 6.4 9.7 0.00 0.00 0.00 44 1014.7
20260901212439 35 69 3.2 4.8 0.00 0.00 0.00 45 1014.9
20260901211936 36 13 4.8 6.4 0.00 0.00 0.00 44 1014.7
20260901211431 36 273 0.0 0.0 0.00 0.00 0.00 44 1015.1
20260901210927 35 94 8.0 12.9 0.00 0.00 0.00 44 1014.9
20260901210423 36 63 1.6 3.2 0.00 0.00 0.00 45 1014.9
20260901205919 36 256 0.0 0.0 0.00 0.00 0.00 44 1015.0
20260901205413 35 98 9.7 11.3 0.00 0.00 0.00 46 1015.3
20260901204908 35 47 0.0 0.0 0.00 0.00 0.00 45 1015.3
20260901204405 35 62 6.4 9.7 0.00 0.00 0.00 47 1015.4
20260901203904 35 38 3.2 6.4 0.00 0.00 0.00 47 1015.4
20260901203358 35 7 11.3 12.9 0.00 0.00 0.00 45 1015.7
20260901202853 35 82 9.7 14.5 0.00 0.00 0.00 45 1015.4
20260901202348 35 14 0.0 0.0 0.00 0.00 0.00 46 1015.5
20260901201845 36 30 0.0 0.0 0.00 0.00 0.00 44 1015.7
20260901201344 35 68 0.0 0.0 0.00 0.00 0.00 45 1015.7
20260901200838 35 89 4.8 4.8 0.00 0.00 0.00 44 1015.9
20260901200333 36 47 11.3 16.1 0.00 0.00 0.00 43 1015.8
20260901195832 35 330 0.0 0.0 0.00 0.00 0.00 46 1015.9
20260901195330 35 121 6.4 9.7 0.00 0.00 0.00 47 1016.1
20260901194826 35 72 8.0 12.9 0.00 0.00 0.00 47 1016.2
20260901194321 34 176 3.2 3.2 0.00 0.00 0.00 47 1016.2
20260901193818 35 97 3.2 4.8 0.00 0.00 0.00 47 1016.0
20260901193316 35 98 3.2 4.8 0.00 0.00 0.00 47 1016.4
20260901192811 35 58 1.6 1.6 0.00 0.00 0.00 47 1016.5
20260901192306 35 82 9.7 11.3 0.00 0.00 0.00 46 1016.5
20260901191803 35 80 12.9 16.1 0.00 0.00 0.00 47 1016.5
20260901191258 35 113 6.4 9.7 0.00 0.00 0.00 48 1016.5
20260901190754 35 17 3.2 4.8 0.00 0.00 0.00 47 1016.5
20260901190253 35 89 3.2 4.8 0.00 0.00 0.00 48 1016.7
20260901185752 35 87 8.0 12.9 0.00 0.00 0.00 48 1016.7
20260901185251 34 318 1.6 3.2 0.00 0.00 0.00 48 1016.7
20260901184747 34 76 3.2 4.8 0.00 0.00 0.00 49 1016.8
20260901184242 35 78 3.2 4.8 0.00 0.00 0.00 49 1017.0
20260901183738 33 161 8.0 11.3 0.00 0.00 0.00 49 1017.1
20260901183237 34 89 1.6 3.2 0.00 0.00 0.00 49 1017.2
20260901182733 33 145 4.8 6.4 0.00 0.00 0.00 48 1017.0
20260901182232 33 20 1.6 3.2 0.00 0.00 0.00 51 1017.4
20260901181727 33 36 4.8 4.8 0.00 0.00 0.00 51 1017.4
20260901181222 33 91 4.8 4.8 0.00 0.00 0.00 52 1017.6
20260901180721 33 204 1.6 3.2 0.00 0.00 0.00 51 1017.6
20260901180220 33 64 0.0 1.6 0.00 0.00 0.00 52 1017.7
20260901175719 34 69 14.5 17.7 0.00 0.00 0.00 51 1017.7
20260901175215 33 120 3.2 3.2 0.00 0.00 0.00 53 1017.8
20260901174710 33 129 8.0 11.3 0.00 0.00 0.00 51 1017.9
20260901174206 33 4 3.2 4.8 0.00 0.00 0.00 52 1018.2
20260901173701 33 123 3.2 3.2 0.00 0.00 0.00 53 1017.8
20260901173156 33 314 1.6 1.6 0.00 0.00 0.00 52 1018.1
20260901172652 32 91 1.6 1.6 0.00 0.00 0.00 53 1018.2
20260901172149 32 80 6.4 11.3 0.00 0.00 0.00 53 1018.4
20260901171643 33 64 6.4 14.5 0.00 0.00 0.00 55 1018.4
20260901171137 33 42 3.2 4.8 0.00 0.00 0.00 53 1018.3
20260901170637 33 170 3.2 4.8 0.00 0.00 0.00 54 1018.5
20260901170132 33 7 0.0 0.0 0.00 0.00 0.00 55 1018.4
20260901165631 32 28 3.2 4.8 0.00 0.00 0.00 57 1018.7
20260901165126 32 90 3.2 4.8 0.00 0.00 0.00 58 1018.8
20260901164622 33 79 4.8 4.8 0.00 0.00 0.00 55 1018.7
20260901164117 32 58 4.8 4.8 0.00 0.00 0.00 56 1018.8
20260901163613 32 129 4.8 6.4 0.00 0.00 0.00 57 1018.7
20260901163111 32 29 3.2 4.8 0.00 0.00 0.00 56 1018.5
20260901162606 31 65 8.0 11.3 0.00 0.00 0.00 58 1018.8
20260901162100 32 106 4.8 6.4 0.00 0.00 0.00 58 1018.9
20260901161559 31 268 0.0 0.0 0.00 0.00 0.00 59 1018.9
20260901161059 32 86 9.7 11.3 0.00 0.00 0.00 60 1018.7
20260901160555 32 213 1.6 3.2 0.00 0.00 0.00 60 1018.8
20260901160050 31 250 1.6 1.6 0.00 0.00 0.00 62 1018.9
20260901155549 31 356 3.2 4.8 0.00 0.00 0.00 63 1018.9
20260901155044 31 68 3.2 4.8 0.00 0.00 0.00 65 1018.9
20260901154539 31 243 1.6 1.6 0.00 0.00 0.00 64 1019.0
20260901154034 30 184 0.0 0.0 0.00 0.00 0.00 67 1018.9
20260901153528 31 85 1.6 3.2 0.00 0.00 0.00 65 1018.8
20260901153022 31 222 0.0 1.6 0.00 0.00 0.00 65 1018.9
20260901152517 30 113 0.0 1.6 0.00 0.00 0.00 67 1018.8
20260901152016 30 113 0.0 1.6 0.00 0.00 0.00 69 1018.9
20260901151512 30 269 3.2 3.2 0.00 0.00 0.00 68 1018.8
20260901151011 30 285 1.6 1.6 0.00 0.00 0.00 71 1018.7
20260901150509 29 234 3.2 3.2 0.00 0.00 0.00 72 1018.8
20260901150008 29 337 0.0 0.0 0.00 0.00 0.00 73 1018.7
20260901145501 29 312 3.2 4.8 0.00 0.00 0.00 74 1018.7
20260901145001 28 144 3.2 4.8 0.00 0.00 0.00 73 1018.8
20260901144456 28 261 3.2 3.2 0.00 0.00 0.00 76 1019.0
20260901143951 29 258 3.2 3.2 0.00 0.00 0.00 74 1019.0
20260901143447 28 235 3.2 3.2 0.00 0.00 0.00 77 1019.0
20260901142944 28 311 3.2 4.8 0.00 0.00 0.00 78 1019.1
20260901142438 28 291 6.4 6.4 0.00 0.00 0.00 79 1019.0
20260901141933 27 289 4.8 4.8 0.00 0.00 0.00 79 1019.2
20260901141427 27 235 0.0 1.6 0.00 0.00 0.00 80 1019.1
20260901140922 27 257 1.6 3.2 0.00 0.00 0.00 80 1019.2
20260901140420 27 275 3.2 3.2 0.00 0.00 0.00 80 1019.4
20260901135914 27 260 6.4 6.4 0.00 0.00 0.00 81 1019.2